User: anonymous   Login
Location: Ash Swamp
(41.5170°N, 74.6157°W)
Time: 07:30:15
(UTC+00:00)
Language:

Cosmos 304 Rocket - Orbit

View from above orbital plane
View from above orbital plane
View from above satellite
View from above satellite

Ground track
Ground track

The orbit data is extracted from the following two-line orbital elements,

1  4139U 69091B   20273.47641789 +.00000144 +00000-0 +33952-4 0  9997
2  4139 074.0328 323.3221 0004260 109.1753 250.9875 14.62991984704287
Epoch (UTC): 29 September 2020 11:26:02
Eccentricity: 0.0004260
inclination: 74.0328°
perigee height: 680 km
apogee height: 686 km
right ascension of ascending node: 323.3221°
argument of perigee: 109.1753°
revolutions per day: 14.62991984
mean anomaly at epoch: 250.9875°
orbit number at epoch: 70428

The dashed part of the orbit path shows where the satellite is in the earth's shadow,  

DLR